"Pseudo-MPEC" for A10BcpM

Created 2021 Sep 20 17:07:03 UT using Find_Orb

Click here for an explanation of pseudo-MPECs

 
 Astrometry: 
     A10BcpM  C2021 09 13.36646723 01 05.03 +04 31 38.1    ~9DCM 16.57oVNEOCPT05
     A10BcpM  C2021 09 13.37186023 01 08.50 +04 06 09.4    ~9DCM 16.38oVNEOCPT05
     A10BcpM  C2021 09 13.37538923 01 10.71 +03 49 33.4    ~9DCM 16.34oVNEOCPT05
     A10BcpM  C2021 09 13.37755023 01 12.04 +03 39 13.8    ~9DCM 16.68oVNEOCPT05
     A10BcpM  C2021 09 13.51915023 02 37.31 -06 54 59.8    ~9DFb 16.02oVNEOCPT08
     A10BcpM  C2021 09 13.51961023 02 37.64 -06 56 58.1    ~9DFb 16.11oVNEOCPT08
     A10BcpM  C2021 09 13.52007123 02 37.99 -06 58 55.1    ~9DFb 16.09oVNEOCPT08
     A10BcpM  C2021 09 13.52053123 02 38.34 -07 00 50.0    ~9DFb 15.99oVNEOCPT08
     A10BcpM  C2021 09 13.52099323 02 38.64 -07 02 44.3    ~9DFb 16.21oVNEOCPT08

Station data:
(T05) ATLAS-HKO, Haleakala  (N20.707573 W156.257010)  US/Hawaii.  Observers
   L. Denneau, A. Heinze, H. Weiland, J. Tonry, H. Flewelling, A.
   Fitzsimmons, D. Young, B. Stalder. Measurers L. Denneau, A. Heinze, J.
   Tonry. 0.5-m f/2.0 Schmidt + CCD.
(T08) ATLAS-MLO, Mauna Loa  (N19.536152 W155.576050)  US/Hawaii.  Observers
   L. Denneau, A. Heinze, H. Weiland, J. Tonry, H. Flewelling, A.
   Fitzsimmons, D. Young, B. Stalder. Measurers L. Denneau, A. Heinze, J.
   Tonry. 0.5-m f/2.0 Schmidt + CCD.

Orbital elements:  A10BcpM
   Perigee 2021 Sep 13.240872 +/- 0.00467291 TT =  5:46:51 (JD 2459470.740872)
Epoch 2021 Sep 13.0 TT = JDT 2459470.5                        AutoNEOCP
q527910.825 +/- 83987               (J2000 equator)
H   27.9  G 0.15                    Peri.  165.13635 +/- 0.4075108
                                    Node   165.47826 +/- 0.0684003
e  97.7400858 +/- 42.2882           Incl.   85.23414 +/- 0.5095597
From 9 observations 2021 Sept. 13 (3.7 hr); mean residual 1".58
Residuals in arcseconds: 
210913 T05  .14-  1.2-    210913 T05  .19-  4.0-    210913 T08  .10+  1.6-    
210913 T05  .25+  .78+    210913 T08  .01-  1.5+    210913 T08  .29+  .61-    
210913 T05  .08+  4.4+    210913 T08  .09-  .76-    210913 T08  .29-  1.4+    

Ephemerides (geocentric):
Date (UTC) HH   RA              Dec         delta   r     elong  mag " sig PA
---- -- -- --  -------------   -----------  ------ ------ -----  --- ---- ---
2021 09 20 17  23 54 23.582   -69 27 55.64  .03705 1.0183 111.5 23.1 1518 102
2021 09 20 18  23 54 28.676   -69 29 35.52  .03726 1.0183 111.4 23.2 1518 102
2021 09 20 19  23 54 33.729   -69 31 14.21  .03746 1.0184 111.4 23.2 1519 102
2021 09 20 20  23 54 38.738   -69 32 51.73  .03766 1.0184 111.3 23.2 1520 102
2021 09 20 21  23 54 43.707   -69 34 28.09  .03787 1.0184 111.3 23.2 1520 102
2021 09 20 22  23 54 48.634   -69 36 03.32  .03807 1.0185 111.2 23.2 1521 102
2021 09 20 23  23 54 53.520   -69 37 37.43  .03828 1.0185 111.2 23.2 1522 102
2021 09 21 00  23 54 58.366   -69 39 10.45  .03848 1.0186 111.2 23.2 1522 102
2021 09 21 01  23 55 03.173   -69 40 42.38  .03868 1.0186 111.1 23.2 1523 102
2021 09 21 02  23 55 07.940   -69 42 13.25  .03889 1.0187 111.1 23.3 1523 102
2021 09 21 03  23 55 12.668   -69 43 43.07  .03909 1.0187 111.0 23.3 1524 102
2021 09 21 04  23 55 17.358   -69 45 11.86  .03929 1.0187 111.0 23.3 1525 102
2021 09 21 05  23 55 22.010   -69 46 39.62  .03950 1.0188 111.0 23.3 1525 102
2021 09 21 06  23 55 26.624   -69 48 06.39  .03970 1.0188 110.9 23.3 1526 102
2021 09 21 07  23 55 31.202   -69 49 32.17  .03991 1.0189 110.9 23.3 1526 102
2021 09 21 08  23 55 35.742   -69 50 56.98  .04011 1.0189 110.8 23.3 1527 102
2021 09 21 09  23 55 40.246   -69 52 20.83  .04031 1.0190 110.8 23.3 1528 102
2021 09 21 10  23 55 44.715   -69 53 43.74  .04052 1.0190 110.8 23.4 1528 102
2021 09 21 11  23 55 49.147   -69 55 05.72  .04072 1.0190 110.7 23.4 1529 102
2021 09 21 12  23 55 53.545   -69 56 26.78  .04092 1.0191 110.7 23.4 1529 102
2021 09 21 13  23 55 57.908   -69 57 46.94  .04113 1.0191 110.6 23.4 1530 102
2021 09 21 14  23 56 02.237   -69 59 06.21  .04133 1.0192 110.6 23.4 1530 102
2021 09 21 15  23 56 06.532   -70 00 24.61  .04154 1.0192 110.6 23.4 1531 102
2021 09 21 16  23 56 10.793   -70 01 42.14  .04174 1.0193 110.5 23.4 1531 102
2021 09 21 17  23 56 15.021   -70 02 58.82  .04194 1.0193 110.5 23.4 1532 102
2021 09 21 18  23 56 19.216   -70 04 14.66  .04215 1.0193 110.5 23.4 1533 102
2021 09 21 19  23 56 23.379   -70 05 29.67  .04235 1.0194 110.4 23.5 1533 102
2021 09 21 20  23 56 27.509   -70 06 43.86  .04255 1.0194 110.4 23.5 1534 102
2021 09 21 21  23 56 31.608   -70 07 57.25  .04276 1.0195 110.3 23.5 1534 102
2021 09 21 22  23 56 35.675   -70 09 09.85  .04296 1.0195 110.3 23.5 1535 102
2021 09 21 23  23 56 39.711   -70 10 21.66  .04317 1.0195 110.3 23.5 1535 102
2021 09 22 00  23 56 43.716   -70 11 32.71  .04337 1.0196 110.2 23.5 1536 102
2021 09 22 01  23 56 47.691   -70 12 42.99  .04357 1.0196 110.2 23.5 1536 102
2021 09 22 02  23 56 51.635   -70 13 52.52  .04378 1.0197 110.2 23.5 1537 102
2021 09 22 03  23 56 55.550   -70 15 01.30  .04398 1.0197 110.1 23.5 1537 102
2021 09 22 04  23 56 59.435   -70 16 09.36  .04418 1.0198 110.1 23.6 1538 102
2021 09 22 05  23 57 03.291   -70 17 16.70  .04439 1.0198 110.1 23.6 1538 102
2021 09 22 06  23 57 07.118   -70 18 23.32  .04459 1.0198 110.0 23.6 1539 102
2021 09 22 07  23 57 10.916   -70 19 29.24  .04479 1.0199 110.0 23.6 1539 102
2021 09 22 08  23 57 14.686   -70 20 34.47  .04500 1.0199 110.0 23.6 1540 102
2021 09 22 09  23 57 18.428   -70 21 39.02  .04520 1.0200 109.9 23.6 1540 102
2021 09 22 10  23 57 22.142   -70 22 42.89  .04540 1.0200 109.9 23.6 1540 102
2021 09 22 11  23 57 25.829   -70 23 46.09  .04561 1.0200 109.9 23.6 1541 102
2021 09 22 12  23 57 29.489   -70 24 48.64  .04581 1.0201 109.8 23.6 1541 102
2021 09 22 13  23 57 33.121   -70 25 50.54  .04602 1.0201 109.8 23.7 1542 102
2021 09 22 14  23 57 36.727   -70 26 51.79  .04622 1.0202 109.8 23.7 1542 102
2021 09 22 15  23 57 40.307   -70 27 52.42  .04642 1.0202 109.7 23.7 1543 102
2021 09 22 16  23 57 43.861   -70 28 52.42  .04663 1.0202 109.7 23.7 1543 102